World > North America > United States > New York

Hourly Seaview, NY Regional Weather

Feedback E-mail the Weather

Latest News

Seaview, NY Weather Maps

°F °C°F °C
Seaview Weather Map
UTC Time: 5/28/2022, 23:13
Your Time:

Seaview, NY Regional Weather

Expires:202205290000;;721470
ASUS41 KALY 282310
RWRALY

NEW YORK STATE HOURLY WEATHER ROUNDUP
NATIONAL WEATHER SERVICE ALBANY NY
700 PM EDT SAT MAY 28 2022

NOTE: "FAIR" INDICATES FEW OR NO CLOUDS BELOW 12,000 FEET WITH NO
SIGNIFICANT WEATHER AND/OR NO OBSTRUCTIONS TO VISIBILITY.


NYZ032-033-038>043-046>054-057>066-NYZ062>081-082-084-290000-
EAST

  
CITY           SKY/WX    TMP DP  RH WIND       PRES   REMARKS
ALBANY         PTSUNNY   73  54  51 NW10      29.77R                  
GLENS FALLS    SUNNY     71  49  45 NW9       29.77R                  
POUGHKEEPSIE   CLOUDY    69  65  86 CALM      29.76R                  
NEWBURGH       PTSUNNY   68  64  88 W9        29.78R                  
MONTGOMERY     PTSUNNY   69  65  86 W5        29.77R                  
WHITE PLAINS   MOSUNNY   68  63  84 W6        29.77R                  
ISLIP          PTSUNNY   68  62  81 W8        29.77R                  
NEW YORK CITY  MOSUNNY   74  58  57 W13       29.77R                  
CENTRAL PARK   SUNNY     71  61  70 VRB3      29.80R                  
$$


SKY/WX - Weather  TMP - Temperature  DP - Dew Point  RH - Humidity
WIND - Wind Direction/Speed PRES - Barometric Pressure VSB - Visibility
WCI - Wind Chill Index E13G22 Wind - East Wind 13 mph/Gusts of 22 mph

Trending Headlines

Seaview Radar Loop



Seaview Quick Facts


National Two Day Weather Forecast


E-mail the Seaview Weather Forecast

Voice your opinion or tell us about page issues...